Cleveland Burke, OH

8:57 PM EST on November 18, 2017 (GMT -0500)
Burke Lakefront

Weather History for KBKL - December, 2012

Change the Weather History Date:

Saturday, December 1, 2012

  Actual Average Record
Temperature  
Mean Temperature 47 °F -  
Max Temperature 57 °F 44 °F 64 °F (1996)
Min Temperature 37 °F 34 °F 23 °F (2002)
Degree Days  
Heating Degree Days 18    
Moisture  
Dew Point 37 °F    
Average Humidity 66    
Maximum Humidity 82    
Minimum Humidity 55    
Precipitation  
Precipitation 0.00 in - - ()
Sea Level Pressure  
Sea Level Pressure 30.20 in    
Wind  
Wind Speed 6 mph (SSE)    
Max Wind Speed 16 mph    
Max Gust Speed 22 mph    
Visibility 9 miles    
Events      
Averages and records for this station are not official NWS values.
T = Trace of Precipitation, MM = Missing Value Source: NWS Daily Summary

Daily Weather History Graph

Daily Weather History Graph

Search for Another Location

Airport or City:

Trip Planner

Search our weather history database for the weather conditions in past years. The results will help you decide how hot, cold, wet, or windy it might be!

Date:

Astronomy

Dec. 01, 2012 Rise Set
Actual Time 7:34 AM EST 4:57 PM EST
Civil Twilight 7:03 AM EST 5:28 PM EST
Nautical Twilight 6:28 AM EST 6:02 PM EST
Astronomical Twilight 5:55 AM EST 6:36 PM EST
Moon 7:46 PM EST (12/1) 9:45 AM EST (12/1)
Length of Visible Light 10h 25m
Length of Day
9h 23m
Waning Gibbous, 92% of the Moon is Illuminated
Dec 1
Waning Gibbous
Dec 6
Last Quarter
Dec 13
New
Dec 20
First Quarter
Dec 28
Full

Hourly Weather History & Observations

Time (EST) Temp. Windchill Dew Point Humidity Pressure Visibility Wind Dir Wind Speed Gust Speed Precip Events Conditions
12:53 AM 39.0 °F - 34.0 °F 82% 30.22 in 9.0 mi Calm Calm - N/A   Clear
1:53 AM 41.0 °F 39.0 °F 30.9 °F 67% 30.20 in 10.0 mi South 3.5 mph - N/A   Clear
2:53 AM 39.0 °F - 34.0 °F 82% 30.22 in 9.0 mi Calm Calm - N/A   Clear
3:53 AM 37.0 °F - 32.0 °F 82% 30.25 in 9.0 mi Calm Calm - N/A   Overcast
4:53 AM 41.0 °F - 32.0 °F 70% 30.24 in 10.0 mi Calm Calm - N/A   Overcast
5:53 AM 39.9 °F - 32.0 °F 73% 30.26 in 8.0 mi Calm Calm - N/A   Clear
7:53 AM 39.9 °F 35.1 °F 33.1 °F 77% 30.27 in 6.0 mi South 6.9 mph - N/A   Haze
8:53 AM 41.0 °F 35.8 °F 34.0 °F 76% 30.27 in 6.0 mi South 8.1 mph - N/A   Haze
9:53 AM 46.9 °F - 37.0 °F 68% 30.27 in 7.0 mi SSE 5.8 mph - N/A   Mostly Cloudy
10:53 AM 51.1 °F - 37.9 °F 61% 30.26 in 6.0 mi South 9.2 mph - N/A   Haze
11:53 AM 53.1 °F - 37.9 °F 57% 30.22 in 6.0 mi South 9.2 mph - N/A   Haze
12:53 PM 52.0 °F - 37.9 °F 59% 30.21 in 6.0 mi South 11.5 mph - N/A   Haze
1:53 PM 55.0 °F - 39.0 °F 55% 30.19 in 8.0 mi SSE 12.7 mph 19.6 mph N/A   Scattered Clouds
3:53 PM 57.0 °F - 41.0 °F 55% 30.17 in 10.0 mi South 12.7 mph - N/A   Clear
4:53 PM 55.9 °F - 41.0 °F 57% 30.16 in 10.0 mi South 12.7 mph 18.4 mph N/A   Clear
5:53 PM 55.0 °F - 41.0 °F 59% 30.16 in 10.0 mi South 13.8 mph - N/A   Clear
6:53 PM 54.0 °F - 42.1 °F 64% 30.17 in 10.0 mi South 13.8 mph - N/A   Clear
7:53 PM 54.0 °F - 42.1 °F 64% 30.17 in 10.0 mi South 13.8 mph - N/A   Overcast
8:53 PM 54.0 °F - 42.1 °F 64% 30.14 in 10.0 mi SSE 15.0 mph - N/A   Scattered Clouds
9:53 PM 54.0 °F - 41.0 °F 62% 30.14 in 10.0 mi SSE 15.0 mph 21.9 mph N/A   Clear
10:53 PM 54.0 °F - 41.0 °F 62% 30.12 in 10.0 mi South 16.1 mph - N/A   Clear
11:53 PM 54.0 °F - 41.0 °F 62% 30.12 in 10.0 mi South 16.1 mph - N/A   Clear